Regional Weather Roundup
Issued by NWS Wilmington, NC

Home | Current Version | Previous Version | Text Only | Print | Product List | Glossary On
Versions: 1 2 3 4 5 6 7 8 9 10 11 12 13 14 15 16 17 18 19 20 21 22 23 24 25 26 27 28 29 30 31 32 33 34 35 36 37 38 39 40 41 42 43 44 45 46 47 48 49
000
ASUS42 KILM 232213
RWRILM
RWRILM
REGIONAL HOURLY WEATHER ROUNDUP
NATIONAL WEATHER SERVICE WILMINGTON NC
600 PM EDT SAT JUL 23 2016

NOTE: "FAIR" INDICATES FEW OR NO CLOUDS BELOW 12,000 FEET WITH NO
SIGNIFICANT WEATHER AND/OR OBSTRUCTIONS TO VISIBILITY.

...............WFO WILMINGTON COUNTY WARNING AREA...............

......COASTAL NC AND SC COUNTIES......

CITY           SKY/WX    TMP DP  RH WIND       PRES   REMARKS
WILMINGTON     MOSUNNY   86  73  65 S7        29.97R HX  93
N MYRTLE BEACH PTSUNNY   83  72  69 W8        29.99R
MYRTLE BEACH   MOSUNNY   84  72  65 S14       30.00R

......INLAND NC AND SC COUNTIES.......

CITY           SKY/WX    TMP DP  RH WIND       PRES   REMARKS
LUMBERTON      CLOUDY    90  76  63 CALM      29.94S HX 101
ELIZABETHTOWN  RAIN      84  73  70 W10       29.97R HX  90
WHITEVILLE     PTSUNNY   90  77  66 S8        29.95S HX 102
FLORENCE       PTSUNNY   93  71  48 SW8       29.94F HX 100
DARLINGTON     NOT AVBL
KINGSTREE      FAIR      90  73  58 SE8       29.96S HX  98
HARTSVILLE     PTSUNNY   90  72  55 W13G18    29.95S HX  96
BENNETTSVILLE  FAIR      93  73  52 SW6       29.94F HX 102
CONWAY         TSTM      82  75  78 E3        29.97R
GEORGETOWN     FAIR      86  77  74 S8        29.99S HX  97
MARION           N/A     90  73  58 S9        29.95S HX  98

....................REST OF NORTH CAROLINA......................

.........EASTERN NC.........

CITY           SKY/WX    TMP DP  RH WIND       PRES   REMARKS
CAPE HATTERAS  SUNNY     86  76  71 SW9G18    29.97S HX  96
JACKSONVILLE   MOSUNNY   90  77  65 S9        29.96S HX 103
MOREHEAD CITY  SUNNY     86  76  71 S13       29.98S HX  96
KENANSVILLE    SUNNY     90  73  56 CALM      29.95S HX  98
NEW BERN       SUNNY     90  72  55 SW9       29.97S HX  97
ELIZABETH CITY SUNNY     92  74  55 SW10      29.92F HX 101

.........CENTRAL NC.........

CITY           SKY/WX    TMP DP  RH WIND       PRES   REMARKS
RALEIGH DURHAM MOSUNNY   89  75  63 SW5       29.95F HX  99
ROCKY MOUNT    SUNNY     93  75  55 SW5       29.95S HX 104
ROANOKE RAPIDS NOT AVBL
FAYETTEVILLE   MOSUNNY   93  73  52 SE8       29.94S HX 102
HOFFMAN        LGT RAIN  78  73  83 W7        29.96S

.........WESTERN NC.........

CITY           SKY/WX    TMP DP  RH WIND       PRES   REMARKS
CHARLOTTE      PTSUNNY   90  71  53 SW10      29.98S HX  96
GREENSBORO     PTSUNNY   92  70  48 VRB3      29.97F HX  97
HICKORY        NOT AVBL
BOONE          NOT AVBL
ASHEVILLE      NOT AVBL

.....................REST OF SOUTH CAROLINA.....................

.........EASTERN SC.........

CITY           SKY/WX    TMP DP  RH WIND       PRES   REMARKS
CHARLESTON     MOSUNNY   92  72  51 S10       29.96F HX  99
BEAUFORT MCAS  MOSUNNY   92  76  59 SE6       29.97S HX 104
HILTON HEAD    MOSUNNY   95  75  52 S12       29.99S HX 107

.........CENTRAL SC.........

CITY           SKY/WX    TMP DP  RH WIND       PRES   REMARKS
COLUMBIA       PTSUNNY   81  71  71 CALM      29.95F THUNDER
ORANGEBURG     MOSUNNY   93  70  46 SW6       29.95F HX  99
SUMTER SHAW    MOSUNNY   93  72  49 NW14      29.94S HAZE    HX 100

.........WESTERN SC.........

CITY           SKY/WX    TMP DP  RH WIND       PRES   REMARKS
GREENVILLE     NOT AVBL
ROCK HILL      PTSUNNY   85  69  58 SW9       29.99R
ANDERSON       CLOUDY    82  69  64 W7        29.99F
CLEMSON        NOT AVBL
GREENWOOD      PTSUNNY   83  72  69 W3        30.01S


...................COASTAL AND OFFSHORE REPORTS..................

................LOCAL PIERS AND NC RESERVE................


STATION/POSITION TIME  SKY/WX   TEMP    WIND        PRES    VSBY
                                AIR SEA DIR/SP/G
                 (UTC)          (F)     (DEG/KT/KT) (MB)    (MI)
JOHNY MRCER PIER 2100            84 85  180/ 17/ 20 1014.0S
NC RESRV MASNBRO NOT AVBL
OCEAN CREST PIER NOT AVBL
SPRINGMAID  PIER 2100            83 84              1014.7F


................COASTAL AND OFFSHORE BUOYS................


STATION/POSITION TIME  SKY/WX   TEMP    WIND        PRES    VSBY
                                AIR SEA DIR/SP/G
                 (UTC)          (F)     (DEG/KT/KT) (MB)    (MI)
DIMNDSHOAL 41025 2150            85 86  220/ 14/ 14 1014.8F
WVE H/P(F/S)=  2/ 8 SWL H/P/D(F/S/D)=  2/140/ 8

CAPE LOOKOUT     2200            85     200/ 11/ 12 1014.9F
ONSLOW BAY 41036 NOT AVBL
ONSLOW BAY 41064 2108            84 85  190/ 10/ 14 1015.4F
ONSLOW BAY 41159 2125               85                N/A
WVE H/P(F/S)=  2/ 9

5SE WRITBC 41038 2108            84 84  200/ 14/ 17 1015.9F
MASNBO INL 41110 2106               85                N/A
WVE H/P(F/S)=  2/ 9

WILM HARBR 41108 2126               87                N/A
WVE H/P(F/S)=  2/ 9

27SE WRITB 41037 2108            84 85  190/ 12/ 14 1015.8S
FRYING PAN 41013 2100            84 86  170/  8/ 10 1015.4F
SUNST NRSH 41024 2108            85 86  200/ 14/ 16 1015.1R
CAPRS NRSH 41029 2108            85 86  190/ 12/ 16 1015.1F
EDISTO     41004 2150            85 87  180/  8/ 10 1015.1F
WVE H/P(F/S)=  2/ 8 SWL H/P/D(F/S/D)=  2/130/ 8



..........OFFSHORE BUOYS BEYOND 100 NM OFFSHORE...........
.....IN A TRIANGLE---HAT TO BERMUDA TO BAHAMAS TO HAT.....


STATION/POSITION TIME  SKY/WX   TEMP    WIND        PRES    VSBY
                                AIR SEA DIR/SP/G
                 (UTC)          (F)     (DEG/KT/KT) (MB)    (MI)
150E HAT   41001 NOT AVBL
W BERMUDA  41048 2150            82 84  140/  4/  6 1016.7F
WVE H/P(F/S)=  3/ 8 SWL H/P/D(F/S/D)=  3/120/ 8

ATLANTIC S 41049 2150            84 86  200/  2/  4 1020.4R
WVE H/P(F/S)=  3/ 8 SWL H/P/D(F/S/D)=  2/110/ 8

E BAHAMAS  41046 2200            84 85  120/ 10/ 14 1017.4R
NE BAHAMAS 41047 2200            84 86  240/  4/  6 1016.3F
120E CANVRL41010 2120            85 88   30/  4/  6 1016.4S

END



USA.gov is the U.S. government's official web portal to all federal, state and local government web resources and services.